Find Starlink 4204

NORAD ID: 52854 Int'l Des: 2022-062 Owner: SPXS Country: US Constellation: starlink operational
LEOCIRCULAR

Live Position

Loading 3D Globe...

About Starlink 4204

Description loading...

Upcoming Passes

Passes for default location (London). Set your location on the main map for personalized predictions.

Altitude History

Loading altitude history...

Two-Line Element Set

1 52854U 22062AA 26105.99266519 .00000115 00000-0 25321-4 0 9991
2 52854 53.2180 216.6569 0001151 87.0542 273.0582 15.08838747211556
Epoch: Apr 15, 2026 • Age: 13 hours

Current Status

Altitude 550.9 km
Velocity 7.59 km/s
Sub-Earth Point -33.61°S, 154.79°E
Launch Date Jun 17, 2022
Age 3.8 years
Type internet

Technical Details

Classification Payload
Mass 297.00 kg
Dry Mass 275.00 kg
Total Mass 297.00 kg
Length 0.20 m
Diameter 2.80 m
Span 9.00 m
Shape Box + pan
Manufacturer SPXS
Bus Type Starlink
Phase Status In Orbit
Owner/State SPXS/US

Most Searched